This is the latest recevied weather packets stored in our database for station/object KG4AGD. If no packets are shown the sender has not sent any weather packets the latest 10 day(s).
| Time | Temp. | Humidity | Pressure | Rain* | Wind** | Luminosity | Snow |
|---|---|---|---|---|---|---|---|
| 1777832170 | 18.89° C | 42% | 1019.3 hPa | 0.25 mm | - | - | - |
| 1777831868 | 19.44° C | 42% | 1019.3 hPa | 0.25 mm | - | - | - |
| 1777831566 | 19.44° C | 42% | 1019.3 hPa | 0.25 mm | - | - | - |
| 1777831263 | 19.44° C | 40% | 1019.3 hPa | 0.25 mm | - | - | - |
| 1777830961 | 18.89° C | 41% | 1019.3 hPa | 0.25 mm | - | - | - |
| 1777830659 | 18.33° C | 43% | 1019.6 hPa | 0.25 mm | - | - | - |
| 1777830357 | 18.89° C | 46% | 1019.6 hPa | 0.25 mm | - | - | - |
| 1777830055 | 18.33° C | 42% | 1019.9 hPa | 0.25 mm | - | - | - |
| 1777829752 | 18.33° C | 42% | 1019.9 hPa | 0.25 mm | - | - | - |
| 1777829450 | 18.33° C | 43% | 1019.9 hPa | 0.25 mm | - | - | - |
| 1777829147 | 17.78° C | 48% | 1019.6 hPa | 0.25 mm | - | - | - |
| 1777828845 | 18.33° C | 44% | 1019.6 hPa | 0.25 mm | - | - | - |
| 1777828543 | 17.78° C | 41% | 1019.9 hPa | 0.25 mm | - | - | - |
| 1777828240 | 18.33° C | 42% | 1019.9 hPa | 0.25 mm | - | - | - |
| 1777827938 | 17.78° C | 45% | 1019.9 hPa | 0.25 mm | - | - | - |
| 1777827636 | 18.33° C | 43% | 1019.9 hPa | 0.25 mm | - | - | - |
| 1777827334 | 17.78° C | 47% | 1019.9 hPa | 0.25 mm | - | - | - |
| 1777827031 | 17.22° C | 42% | 1019.9 hPa | 0.25 mm | - | - | - |
| 1777826729 | 17.22° C | 47% | 1020.3 hPa | 0.25 mm | - | - | - |
| 1777826427 | 17.78° C | 45% | 1020.3 hPa | 0.25 mm | - | - | - |
| 1777826125 | 17.78° C | 47% | 1020.3 hPa | 0.25 mm | - | - | - |
| 1777825822 | 17.22° C | 44% | 1020.3 hPa | 0.25 mm | - | - | - |
| 1777825520 | 17.22° C | 48% | 1020.3 hPa | 0.25 mm | - | - | - |
| 1777825218 | 17.22° C | 46% | 1020.3 hPa | 0.25 mm | - | - | - |
| 1777824916 | 17.22° C | 49% | 1020.3 hPa | 0.25 mm | - | - | - |
* Rain since midnight (hover to see other rain measurements)
** Current wind speed in m/s (hover to see current wind gust speed)